Location: Oshawa
(43.9000°N, 78.8670°W)
Time: 09:46:58
(UTC-04:00)

CZ-4C R/B - Visible Passes

Search period start: 01 September 2014 00:00
Search period end: 11 September 2014 00:00
Orbit: 436 x 558 km, 97.6° (Epoch: 31 August)

Date Brightness Start Highest point End Pass type
(mag) Time Alt. Az. Time Alt. Az. Time Alt. Az.
01 Sep 5.9 23:08:42 15° N 23:08:42 15° N 23:09:25 10° N visible
02 Sep 5.9 22:48:07 13° NNE 22:48:07 13° NNE 22:48:38 10° N visible
03 Sep 6.0 22:27:31 10° NNE 22:27:31 10° NNE 22:27:34 10° NNE visible
05 Sep 6.4 23:20:56 10° N 23:20:56 10° N 23:21:00 10° N visible
